Hourly Weather Krainje

Today, 28 October, Wednesday

Time Temperature Precipitation Wind Pressure Humidity
00:00 +15°C° 0 mm 2 mps 755 mmHg 80%
01:00 +15°C° 0 mm 2 mps 755 mmHg 80%
02:00 +15°C° 0 mm 2 mps 756 mmHg 82%
03:00 +15°C° 0 mm 2 mps 756 mmHg 82%
04:00 +14°C° 0 mm 2 mps 755 mmHg 82%
05:00 +14°C° 0 mm 2 mps 755 mmHg 81%
06:00 +15°C° 0 mm 2 mps 755 mmHg 78%
07:00 +16°C° 0 mm 3 mps 756 mmHg 75%
08:00 +16°C° 0 mm 3 mps 756 mmHg 72%
09:00 +18°C° 0 mm 3 mps 756 mmHg 66%
10:00 +20°C° 0 mm 3 mps 756 mmHg 60%
11:00 +22°C° 0 mm 3 mps 756 mmHg 53%
12:00 +22°C° 0 mm 4 mps 756 mmHg 52%
13:00 +23°C° 0 mm 4 mps 755 mmHg 51%
14:00 +23°C° 0 mm 5 mps 755 mmHg 49%
15:00 +21°C° 0 mm 5 mps 755 mmHg 57%
16:00 +20°C° 0 mm 5 mps 755 mmHg 65%
17:00 +17°C° 0 mm 5 mps 755 mmHg 73%
18:00 +17°C° 0 mm 5 mps 755 mmHg 74%
19:00 +16°C° 0 mm 5 mps 755 mmHg 76%
20:00 +16°C° 0 mm 5 mps 755 mmHg 78%
21:00 +17°C° 0 mm 4 mps 755 mmHg 79%
22:00 +16°C° 0 mm 3 mps 755 mmHg 79%
23:00 +16°C° 0 mm 2 mps 754 mmHg 80%

Tomorrow, 29 October, Thursday

Time Temperature Precipitation Wind Pressure Humidity
00:00 +16°C° 0 mm 2 mps 754 mmHg 82%
01:00 +16°C° 0 mm 2 mps 754 mmHg 83%
02:00 +15°C° 0 mm 2 mps 754 mmHg 85%
03:00 +15°C° 0 mm 2 mps 754 mmHg 86%
04:00 +14°C° 0 mm 3 mps 754 mmHg 87%
05:00 +14°C° 0 mm 3 mps 754 mmHg 87%
06:00 +16°C° 0 mm 3 mps 754 mmHg 84%
07:00 +16°C° 0 mm 3 mps 754 mmHg 81%
08:00 +17°C° 0 mm 4 mps 754 mmHg 79%
09:00 +18°C° 0 mm 3 mps 754 mmHg 71%
10:00 +20°C° 0 mm 3 mps 754 mmHg 64%
11:00 +21°C° 0 mm 3 mps 754 mmHg 56%
12:00 +21°C° 0 mm 3 mps 753 mmHg 57%
13:00 +21°C° 0 mm 3 mps 753 mmHg 57%
14:00 +21°C° 0 mm 3 mps 753 mmHg 58%
15:00 +20°C° 0.1 mm 3 mps 753 mmHg 64%
16:00 +19°C° 0.1 mm 3 mps 753 mmHg 71%
17:00 +18°C° 0.1 mm 4 mps 753 mmHg 77%
18:00 +18°C° 0 mm 3 mps 753 mmHg 78%
19:00 +17°C° 0 mm 2 mps 753 mmHg 79%
20:00 +17°C° 0 mm 2 mps 753 mmHg 80%
21:00 +17°C° 0.2 mm 2 mps 753 mmHg 79%
22:00 +17°C° 0.2 mm 2 mps 753 mmHg 78%
23:00 +17°C° 0.2 mm 2 mps 753 mmHg 77%

Day after tomorrow, 30 October, Friday

Time Temperature Precipitation Wind Pressure Humidity
00:00 +17°C° 0 mm 2 mps 753 mmHg 78%
01:00 +17°C° 0 mm 2 mps 753 mmHg 79%
02:00 +16°C° 0 mm 2 mps 753 mmHg 80%
03:00 +16°C° 0 mm 2 mps 753 mmHg 82%
04:00 +16°C° 0 mm 2 mps 753 mmHg 84%
05:00 +16°C° 0 mm 2 mps 753 mmHg 86%
06:00 +16°C° 0 mm 2 mps 754 mmHg 85%
07:00 +16°C° 0 mm 3 mps 754 mmHg 83%
08:00 +16°C° 0 mm 3 mps 754 mmHg 82%
09:00 +17°C° 0 mm 3 mps 754 mmHg 76%
10:00 +18°C° 0 mm 3 mps 754 mmHg 70%
11:00 +19°C° 0 mm 3 mps 754 mmHg 64%
12:00 +19°C° 0 mm 3 mps 754 mmHg 63%
13:00 +19°C° 0 mm 4 mps 754 mmHg 62%
14:00 +19°C° 0 mm 4 mps 754 mmHg 61%
15:00 +18°C° 0 mm 3 mps 754 mmHg 64%
16:00 +17°C° 0 mm 3 mps 754 mmHg 66%
17:00 +16°C° 0 mm 2 mps 754 mmHg 69%
18:00 +16°C° 0 mm 2 mps 754 mmHg 71%
19:00 +15°C° 0 mm 1 mps 754 mmHg 74%
20:00 +15°C° 0 mm 1 mps 754 mmHg 76%
21:00 +15°C° 0.3 mm 1 mps 754 mmHg 78%
22:00 +14°C° 0.3 mm 1 mps 753 mmHg 81%
23:00 +14°C° 0.3 mm 2 mps 753 mmHg 83%

31 October, Saturday

Time Temperature Precipitation Wind Pressure Humidity
00:00 +14°C° 0.2 mm 1 mps 753 mmHg 83%
01:00 +14°C° 0.2 mm 1 mps 753 mmHg 83%
02:00 +14°C° 0.2 mm 1 mps 752 mmHg 83%
03:00 +14°C° 0.1 mm 1 mps 752 mmHg 84%
04:00 +14°C° 0.1 mm 1 mps 752 mmHg 84%
05:00 +13°C° 0.1 mm 1 mps 752 mmHg 84%
06:00 +13°C° 0.3 mm 1 mps 752 mmHg 83%
07:00 +14°C° 0.3 mm 1 mps 752 mmHg 81%
08:00 +14°C° 0.3 mm 2 mps 752 mmHg 80%
09:00 +15°C° 0.3 mm 2 mps 752 mmHg 74%
10:00 +16°C° 0.3 mm 2 mps 752 mmHg 68%
11:00 +17°C° 0.3 mm 2 mps 752 mmHg 61%
12:00 +17°C° 0.7 mm 4 mps 753 mmHg 64%
13:00 +15°C° 0.7 mm 5 mps 753 mmHg 67%
14:00 +15°C° 0.7 mm 6 mps 753 mmHg 69%
15:00 +14°C° 0.2 mm 6 mps 753 mmHg 72%
16:00 +13°C° 0.2 mm 5 mps 754 mmHg 75%
17:00 +13°C° 0.2 mm 4 mps 754 mmHg 78%
18:00 +12°C° 0 mm 4 mps 755 mmHg 79%
19:00 +12°C° 0 mm 3 mps 755 mmHg 80%
20:00 +11°C° 0 mm 3 mps 755 mmHg 81%
21:00 +12°C° 0 mm 2 mps 755 mmHg 80%
22:00 +12°C° 0 mm 2 mps 756 mmHg 79%
23:00 +12°C° 0 mm 1 mps 756 mmHg 77%

1 November, Sunday

Time Temperature Precipitation Wind Pressure Humidity
00:00 +12°C° 0 mm 1 mps 756 mmHg 77%
01:00 +12°C° 0 mm 1 mps 756 mmHg 77%
02:00 +11°C° 0 mm 1 mps 756 mmHg 77%
03:00 +11°C° 0 mm 1 mps 756 mmHg 78%
04:00 +11°C° 0 mm 1 mps 756 mmHg 78%
05:00 +11°C° 0 mm 1 mps 756 mmHg 78%
06:00 +11°C° 0 mm 1 mps 757 mmHg 75%
07:00 +12°C° 0 mm 1 mps 757 mmHg 72%
08:00 +13°C° 0 mm 1 mps 757 mmHg 69%
09:00 +14°C° 0 mm 1 mps 757 mmHg 64%
10:00 +15°C° 0 mm 2 mps 758 mmHg 59%
11:00 +16°C° 0 mm 2 mps 758 mmHg 54%
12:00 +16°C° 0 mm 2 mps 758 mmHg 53%
13:00 +17°C° 0 mm 3 mps 758 mmHg 51%
14:00 +17°C° 0 mm 3 mps 758 mmHg 50%
15:00 +16°C° 0 mm 3 mps 758 mmHg 54%
16:00 +14°C° 0 mm 3 mps 758 mmHg 59%
17:00 +13°C° 0 mm 3 mps 758 mmHg 64%
18:00 +13°C° 0 mm 3 mps 758 mmHg 67%
19:00 +12°C° 0 mm 3 mps 758 mmHg 70%
20:00 +12°C° 0 mm 3 mps 758 mmHg 74%
21:00 +12°C° 0 mm 3 mps 758 mmHg 75%
22:00 +12°C° 0 mm 3 mps 758 mmHg 76%
23:00 +12°C° 0 mm 3 mps 758 mmHg 77%

2 November, Monday

Time Temperature Precipitation Wind Pressure Humidity
00:00 +12°C° 0 mm 4 mps 758 mmHg 79%
01:00 +12°C° 0 mm 4 mps 757 mmHg 81%
02:00 +11°C° 0 mm 4 mps 757 mmHg 83%
03:00 +12°C° 0 mm 5 mps 757 mmHg 82%
04:00 +12°C° 0 mm 5 mps 757 mmHg 80%
05:00 +12°C° 0 mm 5 mps 757 mmHg 79%
06:00 +12°C° 0 mm 5 mps 757 mmHg 81%
07:00 +13°C° 0 mm 6 mps 757 mmHg 83%
08:00 +13°C° 0 mm 6 mps 757 mmHg 85%
09:00 +13°C° 0 mm 6 mps 757 mmHg 83%
10:00 +14°C° 0 mm 7 mps 757 mmHg 81%
11:00 +15°C° 0 mm 7 mps 757 mmHg 79%
12:00 +15°C° 0 mm 7 mps 757 mmHg 77%
13:00 +16°C° 0 mm 7 mps 757 mmHg 76%
14:00 +16°C° 0 mm 8 mps 756 mmHg 74%
15:00 +15°C° 0 mm 7 mps 756 mmHg 78%
16:00 +15°C° 0 mm 6 mps 756 mmHg 81%
17:00 +14°C° 0 mm 6 mps 756 mmHg 85%
18:00 +14°C° 0 mm 6 mps 756 mmHg 86%
19:00 +14°C° 0 mm 6 mps 756 mmHg 87%
20:00 +14°C° 0 mm 6 mps 756 mmHg 88%
21:00 +14°C° 0 mm 6 mps 756 mmHg 89%
22:00 +14°C° 0 mm 5 mps 756 mmHg 89%
23:00 +14°C° 0 mm 5 mps 756 mmHg 90%
Show more